This is the latest recevied weather packets stored in our database for station/object N2RDT. If no packets are shown the sender has not sent any weather packets the latest 10 day(s).
| Time | Temp. | Humidity | Pressure | Rain* | Wind** | Luminosity | Snow |
|---|---|---|---|---|---|---|---|
| 1778006029 | 26.67° C | 38% | 1016.3 hPa | 0 mm | - | 873 W/m² | - |
| 1778005726 | 26.67° C | 38% | 1016.5 hPa | 0 mm | - | 910 W/m² | - |
| 1778005422 | 26.11° C | 40% | 1016.3 hPa | 0 mm | - | 796 W/m² | - |
| 1778005119 | 26.11° C | 40% | 1016.4 hPa | 0 mm | - | 796 W/m² | - |
| 1778004816 | 26.11° C | 41% | 1016.6 hPa | 0 mm | - | 854 W/m² | - |
| 1778004513 | 26.11° C | 41% | 1016.6 hPa | 0 mm | - | 946 W/m² | - |
| 1778004210 | 26.11° C | 41% | 1016.6 hPa | 0 mm | - | 946 W/m² | - |
| 1778003906 | 26.11° C | 41% | 1016.7 hPa | 0 mm | - | 946 W/m² | - |
| 1778003603 | 26.11° C | 41% | 1016.6 hPa | 0 mm | - | 882 W/m² | - |
| 1778003299 | 25.56° C | 43% | 1016.6 hPa | 0 mm | - | 941 W/m² | - |
| 1778002997 | 26.11° C | 39% | 1016.6 hPa | 0 mm | - | 935 W/m² | - |
| 1778002692 | 26.11° C | 41% | 1016.6 hPa | 0 mm | - | 954 W/m² | - |
| 1778002389 | 25.56° C | 41% | 1016.6 hPa | 0 mm | - | 956 W/m² | - |
| 1778002086 | 25.56° C | 38% | 1016.7 hPa | 0 mm | - | 971 W/m² | - |
| 1778001783 | 26.11° C | 40% | 1016.7 hPa | 0 mm | - | 973 W/m² | - |
| 1778001478 | 25.56° C | 41% | 1016.6 hPa | 0 mm | - | 974 W/m² | - |
| 1778001175 | 25.56° C | 44% | 1016.6 hPa | 0 mm | - | 967 W/m² | - |
| 1778000872 | 25° C | 42% | 1016.9 hPa | 0 mm | - | 217 W/m² | - |
| 1778000569 | 25.56° C | 43% | 1017.1 hPa | 0 mm | - | 947 W/m² | - |
| 1777999961 | 25° C | 43% | 1017 hPa | 0 mm | - | 947 W/m² | - |
| 1777999657 | 25.56° C | 43% | 1017.2 hPa | 0 mm | - | 929 W/m² | - |
| 1777999354 | 25.56° C | 46% | 1017 hPa | 0 mm | - | 945 W/m² | - |
| 1777999052 | 25° C | 45% | 1017.1 hPa | 0 mm | - | 956 W/m² | - |
| 1777998750 | 25° C | 44% | 1017.2 hPa | 0 mm | - | 953 W/m² | - |
| 1777998447 | 25° C | 45% | 1017.2 hPa | 0 mm | - | 951 W/m² | - |
* Rain latest hour (hover to see other rain measurements)
** Current wind speed in m/s (hover to see current wind gust speed)